STARLINK-37564, 68902

Orbit data source: Space-Track

STARLINK-37564, 68902 is a payload satellite owned by SpaceX/Seattle (US) in SSO that was launched on Thu, 30 Apr 2026 UTC via an FALCON 9 launch vehicle from the Air Force Western Test Range (AFWTR). Payload-class satellites include a variety of spacecraft equipped with specific instruments for various scientific and technological missions. These include communications satellites like Starlink; space stations such as the ISS; scientific satellites like the Hubble; Earth observation satellites from companies like Planet Labs, Umbra, and HawkEye 360; GPS; miniature CubeSats for education and research; and military/defense satellites.

Loading next visibility...
Identifier
68902, 2026-097H
Orbit
SSO
Country
Flag of USUS
Related business
Manufacturer
SpaceX/Seattle
Mission
Operational spacecraft
Bus & Motor
STARLINK V2MO, Unknown motor
Mass
575 kg wet, ~530 kg dry
Launch date (UTC)
2026-04-30 (3 weeks ago)
Launch vehicle
FALCON 9
Launch site
Air Force Western Test Range (AFWTR)
Object type
Payload
Rocket body
Debris
Shape & HBR
Unknown
Radar Cross Section
RCS unknown

Expand to show TLE details & history
Last TLE update: 9 hours ago

TLE from 9 hours ago
0 STARLINK-37564
1 68902U 26097H   26140.58335648  .00004991  00000-0  93378-4 0  9991
2 68902  97.2855 336.2780 0001675 101.7343 189.8184 15.49185823  4481
Epoch: 2026-05-20T14:00Z
TLE epoch observation values (Epoch: 2026-05-20T14:00:01.999Z)
Latitude
-67.48167°
Longitude
-94.11326°
Altitude
445.742 km
Speed
7.643 km/s
True Right ascension
23h 36m 32s
True Declination
-67° 21' 15"
Sunlit
Object was in daylight at epoch
Visualization orbit readout
Latitude
Unknown
Longitude
Unknown
Altitude
Unknown
Speed
Unknown
Apparent Right ascension
Unknown
Apparent Declination
Unknown
Sunlit
N/A
Visualization observer readout
Local Sidereal Time
08:12:56
Azimuth
Unknown
Elevation
Unknown
Doppler factor
Unknown
Orbital elements
Apogee altitude
417.166 km
Perigee altitude
414.89 km
Semi-major axis
6,794.165 km
Eccentricity
0.00017
Inclination
97.2855°
RAAN
336.278°
Arg. of periapsis
101.7343°
True anomaly
189.81513°
Mean anomaly
189.8184°
Eccentric anomaly
189.81676°
Mean motion
3.8756 °/min
Orbital period
92.89 mins
BSTAR
0.000093378
Loading maneuver chart data...
Computing Atmospheric mass density...
Loading historical data...
Loading historical data...
Loading historical data...
Loading historical data...
Loading historical data...
Loading historical data...
Loading historical data...

Documentation

Showing up to 5 results
|